Location: Bruderhein
(53.8035°N, 112.9265°W)
Time: 20:53:11
(UTC+00:00)

Gurwin Techsat 1B - Pass Details

Date: 23 April 2024
Orbit: 811 x 812 km, 98.9° (Epoch: 26 May)

Event Time Altitude Azimuth Distance (km) Brightness Sun altitude
Rises 10:51:22 0° 19° (NNE) 3,350 12.9 -10.9°
Reaches altitude 10° 10:53:48 10° 24° (NNE) 2,414 12.2 -10.6°
Maximum altitude 10:58:59 51° 100° (E) 1,023 9.5 -10.0°
Drops below altitude 10° 11:04:09 10° 176° (S) 2,396 10.7 -9.4°
Sets 11:06:32 0° 182° (S) 3,323 11.4 -9.1°
